Location: Caltech
(34.1382°N, 118.1253°W)
Time: 17:49:32
(UTC-07:00)

Iridium 94 - Visible Passes

Search period start: 22 July 2017 00:00
Search period end: 01 August 2017 00:00
Orbit: 776 x 779 km, 86.4° (Epoch: 22 July)

Date Brightness Start Highest point End Pass type
(mag) Time Alt. Az. Time Alt. Az. Time Alt. Az.
22 Jul 7.7 21:51:31 10° SW 21:55:43 24° W 21:59:55 10° NNW visible
23 Jul 6.5 21:17:02 10° SSW 21:22:01 47° W 21:27:03 10° N visible
24 Jul 5.5 20:43:16 10° S 20:48:28 88° E 20:53:43 10° N visible
25 Jul 8.2 21:52:41 10° WSW 21:55:57 17° WNW 21:59:13 10° NW visible
26 Jul 7.3 21:17:36 10° SW 21:22:12 31° W 21:26:49 10° NNW visible
27 Jul 6.1 20:43:26 10° SSW 20:48:34 62° W 20:53:44 10° N visible
28 Jul 8.6 21:55:03 10° W 21:56:14 11° WNW 21:57:26 10° WNW visible
29 Jul 8.0 21:18:29 10° SW 21:22:24 21° W 21:26:21 10° NNW visible
30 Jul 7.0 20:43:49 10° SSW 20:48:42 41° W 20:53:37 10° NNW visible
